News / 

AP-UT--SLC-UT 2nd Weather Roundup, UT



Estimated read time: 1-2 minutes

This archived news story is available only for your personal, non-commercial use. Information in the story may be outdated or superseded by additional information. Reading or replaying the story in its archived form does not constitute a republication of the story.

AP-UT--SLC-UT 2nd Weather Roundup

000

ASUS45 KSLC 160810

RWRUT

UTAH REGIONAL WEATHER ROUNDUP

NATIONAL WEATHER SERVICE SALT LAKE CITY UT

200 AM MDT WED APR 16 2014

UTZ001>011-023>025-160900-

NORTHERN UTAH

CITY SKY/WX TMP DP RH WIND PRES REMARKS

HILL AFB CLOUDY 46 11 25 N9 29.96S

LOGAN CLEAR 38 19 46 W6 29.95S WCI 33

OGDEN CLOUDY 47 15 27 N10 29.96R

PROVO AIRPORT PTCLDY 48 25 40 NW16 29.94S

SALT LAKE CITY CLOUDY 48 22 35 N6 29.95R

VERNAL PTCLDY 48 15 26 NW9G16 29.84R

WENDOVER PTCLDY 46 18 31 N8 29.99R

HEBER CITY MOCLDY 43 14 31 N12 29.93S

WEST JORDAN CLEAR 45 27 49 NW12 29.96S

$$

UTZ012>022-026-027-160900-

SOUTHERN UTAH

CITY SKY/WX TMP DP RH WIND PRES REMARKS

BRYCE CANYON CLEAR 28 9 44 W10 29.99S WCI 19

CEDAR CITY CLEAR 41 10 28 MISG 29.92S

MILFORD PTCLDY 47 21 35 N14 29.92R

MOAB/CYNLANDS CLEAR 40 17 39 N3 29.80R

PRICE PTCLDY 48 14 25 NW8G20 29.86R

ST GEORGE PTSUNNY 57 7 13 E9 29.84R

KANAB N/A 36 5 27 NE6 29.95R WCI 31

$$

REGIONAL REPORTS COLORADO/ARIZONA

CITY SKY/WX TMP DP RH WIND PRES REMARKS

CRAIG, CO CLOUDY 43 23 45 NW16 29.87R

GRAND JUNCTION PTCLDY 39 28 64 CALM 29.81R

RIFLE CLOUDY 46 24 42 W9 29.81R

MONTROSE MOCLDY 47 21 35 SE5 29.84F

CORTEZ CLEAR 31 17 56 CALM 29.90S

PAGE, AZ CLEAR 61 0 8 CALM 29.85R

GRAND CANYON CLEAR 26 -2 29 E5 29.99S WCI 20

KINGMAN CLEAR 49 3 15 SE3 29.85F

FLAGSTAFF CLEAR 30 6 36 SW3 30.00F

$$

REGIONAL REPORTS NEVADA/IDAHO/WYOMING

CITY SKY/WX TMP DP RH WIND PRES REMARKS

LAS VEGAS, NV PTCLDY 65 17 15 S10 29.73S

ELY CLEAR 40 20 44 NW8 29.99S WCI 34

ELKO CLOUDY 38 17 42 SE5 29.99R WCI 34

POCATELLO, ID CLEAR 33 18 53 CALM 30.00R

BURLEY MOCLDY 38 22 52 SW8 29.99R WCI 32

EVANSTON, WY CLOUDY 34 11 38 W12 29.96S WCI 25

ROCK SPRINGS PTCLDY 32 22 66 W14 29.91R WCI 22

$$

Delivered by Weather Underground Inc. Wed Apr 16 2014 4:16AM EDT

Copyright © The Associated Press. All rights reserved. This material may not be published, broadcast, rewritten or redistributed.

The Associated Press

    SIGN UP FOR THE KSL.COM NEWSLETTER

    Catch up on the top news and features from KSL.com, sent weekly.
    By subscribing, you acknowledge and agree to KSL.com's Terms of Use and Privacy Policy.

    KSL Weather Forecast